Time,TemperatureF,DewpointF,PressureIn,WindDirection,WindDirectionDegrees,WindSpeedMPH,WindSpeedGustMPH,Humidity,HourlyPrecipIn,Conditions,Clouds,dailyrainin,SoftwareType,DateUTC
2014-08-27 00:05:00,61.0,58.1,29.99,ENE,73,0.9,2.0,90,0.00,,,0.00,meteobridge,2014-08-27 07:05:00,
2014-08-27 00:10:00,61.0,58.1,29.99,ESE,105,0.9,0.9,90,0.00,,,0.00,meteobridge,2014-08-27 07:10:00,
2014-08-27 00:15:00,61.0,58.3,29.99,East,80,0.9,2.0,91,0.00,,,0.00,meteobridge,2014-08-27 07:15:00,
2014-08-27 00:20:00,60.8,58.1,29.99,ENE,77,0.0,2.9,91,0.00,,,0.00,meteobridge,2014-08-27 07:20:00,
2014-08-27 00:25:00,61.0,58.3,29.99,North,11,0.0,0.9,91,0.00,,,0.00,meteobridge,2014-08-27 07:25:00,
2014-08-27 00:31:00,60.8,58.1,29.99,NE,51,0.0,0.9,91,0.00,,,0.00,meteobridge,2014-08-27 07:31:00,
2014-08-27 00:36:00,60.6,57.9,29.99,East,98,0.9,0.9,91,0.00,,,0.00,meteobridge,2014-08-27 07:36:00,
2014-08-27 00:41:00,60.6,57.9,29.99,SE,124,0.0,0.9,91,0.00,,,0.00,meteobridge,2014-08-27 07:41:00,
2014-08-27 00:46:00,60.6,58.3,29.99,ENE,75,0.9,2.9,92,0.00,,,0.00,meteobridge,2014-08-27 07:46:00,
2014-08-27 00:51:00,60.6,57.9,29.99,ESE,117,0.0,4.0,91,0.00,,,0.00,meteobridge,2014-08-27 07:51:00,
2014-08-27 00:56:00,60.6,57.9,29.99,ENE,67,0.9,2.9,91,0.00,,,0.00,meteobridge,2014-08-27 07:56:00,
2014-08-27 01:02:00,60.6,58.3,29.99,WSW,248,0.0,2.0,92,0.00,,,0.00,meteobridge,2014-08-27 08:02:00,
2014-08-27 01:07:00,60.6,58.3,29.99,ENE,77,0.0,2.0,92,0.00,,,0.00,meteobridge,2014-08-27 08:07:00,
2014-08-27 01:12:00,60.6,58.3,29.99,SE,137,0.9,0.9,92,0.00,,,0.00,meteobridge,2014-08-27 08:12:00,
2014-08-27 01:17:00,60.6,58.3,29.99,SSW,210,0.9,0.9,92,0.00,,,0.00,meteobridge,2014-08-27 08:17:00,
2014-08-27 01:22:00,60.6,58.3,29.99,WSW,254,2.0,2.9,92,0.00,,,0.00,meteobridge,2014-08-27 08:22:00,
2014-08-27 01:27:00,60.6,58.6,29.99,WSW,255,0.9,2.9,93,0.00,,,0.00,meteobridge,2014-08-27 08:27:00,
2014-08-27 01:33:00,60.6,58.6,30.00,South,188,0.9,2.9,93,0.00,,,0.00,meteobridge,2014-08-27 08:33:00,
2014-08-27 01:38:00,60.4,58.5,29.99,South,188,0.0,0.0,93,0.00,,,0.00,meteobridge,2014-08-27 08:38:00,
2014-08-27 01:43:00,60.4,58.5,29.99,ENE,73,0.0,2.0,93,0.00,,,0.00,meteobridge,2014-08-27 08:43:00,
2014-08-27 01:48:00,60.4,58.5,29.99,NE,41,0.0,2.0,93,0.00,,,0.00,meteobridge,2014-08-27 08:48:00,
2014-08-27 01:53:00,60.4,58.5,29.99,NE,42,0.9,2.0,93,0.00,,,0.00,meteobridge,2014-08-27 08:53:00,
2014-08-27 01:59:00,60.4,58.5,29.99,SSE,158,0.9,0.9,93,0.00,,,0.00,meteobridge,2014-08-27 08:59:00,
2014-08-27 02:04:00,60.3,58.3,29.99,SSW,211,0.0,0.9,93,0.00,,,0.00,meteobridge,2014-08-27 09:04:00,
2014-08-27 02:09:00,60.3,58.3,29.99,SSW,198,0.0,0.0,93,0.00,,,0.00,meteobridge,2014-08-27 09:09:00,
2014-08-27 02:14:00,60.3,58.3,30.00,SSW,196,0.0,0.9,93,0.00,,,0.00,meteobridge,2014-08-27 09:14:00,
2014-08-27 02:19:00,60.3,58.5,29.99,ENE,58,0.9,2.0,94,0.00,,,0.00,meteobridge,2014-08-27 09:19:00,
2014-08-27 02:24:00,60.3,58.5,30.00,ENE,67,0.0,0.9,94,0.00,,,0.00,meteobridge,2014-08-27 09:24:00,
2014-08-27 02:30:00,60.3,58.5,30.00,ENE,63,2.0,2.0,94,0.00,,,0.00,meteobridge,2014-08-27 09:30:00,
2014-08-27 02:35:00,60.4,58.6,30.00,SSW,195,2.0,2.9,94,0.00,,,0.00,meteobridge,2014-08-27 09:35:00,
2014-08-27 02:40:00,60.4,58.6,30.00,ENE,68,0.0,2.9,94,0.00,,,0.00,meteobridge,2014-08-27 09:40:00,
2014-08-27 02:53:00,60.4,58.6,30.00,ENE,68,0.9,2.9,94,0.00,,,0.00,meteobridge,2014-08-27 09:53:00,
2014-08-27 02:58:00,60.6,58.8,30.00,SW,233,0.0,2.0,94,0.00,,,0.00,meteobridge,2014-08-27 09:58:00,
2014-08-27 03:04:00,60.6,58.8,30.00,East,85,0.0,0.9,94,0.00,,,0.00,meteobridge,2014-08-27 10:04:00,
2014-08-27 03:09:00,60.6,58.8,30.01,ENE,68,0.0,2.9,94,0.00,,,0.00,meteobridge,2014-08-27 10:09:00,
2014-08-27 03:14:00,60.6,58.8,30.01,ENE,59,0.9,2.9,94,0.00,,,0.00,meteobridge,2014-08-27 10:14:00,
2014-08-27 03:19:00,60.6,58.8,30.01,NW,304,0.0,4.9,94,0.00,,,0.00,meteobridge,2014-08-27 10:19:00,
2014-08-27 03:24:00,60.6,58.8,30.01,NW,318,0.0,2.0,94,0.00,,,0.00,meteobridge,2014-08-27 10:24:00,
2014-08-27 03:29:00,60.4,58.6,30.01,WNW,286,0.0,0.9,94,0.00,,,0.00,meteobridge,2014-08-27 10:29:00,
2014-08-27 03:35:00,60.3,58.5,30.01,West,262,0.0,2.9,94,0.00,,,0.00,meteobridge,2014-08-27 10:35:00,
2014-08-27 03:40:00,60.4,58.6,30.01,West,262,0.0,0.9,94,0.00,,,0.00,meteobridge,2014-08-27 10:40:00,
2014-08-27 03:45:00,60.4,58.6,30.01,North,350,0.0,0.0,94,0.00,,,0.00,meteobridge,2014-08-27 10:45:00,
2014-08-27 03:50:00,60.4,58.6,30.01,West,271,2.0,2.9,94,0.00,,,0.00,meteobridge,2014-08-27 10:50:00,
2014-08-27 03:55:00,60.4,58.6,30.01,West,269,0.9,2.0,94,0.00,,,0.00,meteobridge,2014-08-27 10:55:00,
2014-08-27 04:01:00,60.6,58.8,30.01,SW,223,0.9,2.0,94,0.00,,,0.00,meteobridge,2014-08-27 11:01:00,
2014-08-27 04:06:00,60.6,58.8,30.01,SSW,212,0.0,0.9,94,0.00,,,0.00,meteobridge,2014-08-27 11:06:00,
2014-08-27 04:11:00,60.8,59.0,30.01,West,259,2.0,2.0,94,0.00,,,0.00,meteobridge,2014-08-27 11:11:00,